2019-093C (44881 NORAD) Tracking and Keplerian Element Data

This shows tracking and keplerian element data for the satellite.

Feedback or suggestion? Click here.




ElementValue
Catalog44881
Name2019-093C
Epoch Orbit1554
Epoch Day94.14990552
Epoch Year2020
RAAN170.6947
Inclination97.962
Eccentricity0.0013968
Argument of Perigee285.5121
Mean Anonmoly74.4503
Mean Motion14.81423738
Decay Rate1.99E-06
L11 44881U 19093C 20094.14990552 .00000199 00000-0 32305-4 0 9993
L22 44881 97.9620 170.6947 0013968 285.5121 74.4503 14.81423738 15544

Live tracking and technical data element details for 2019-093C (NORAD 44881). 2019-093C can be tracked NOW for your location showing map with azimuth and elevation plus other details from your city location.

Track the satellite on the map from your city or location and see movement details for azimuth, elevation, latitude, longitude, range, height, and movement on the map or in text.







IsCatalogInMostPopularTable: catalog: 44881, numindb: 25
Update: records affected: 1



GetName: 44881 2019-093C

Hit Count: updated at: Sun, 05 Apr 2020 20:35:07 GMT